This demonstration page uses our WeatherBlox Daily Observations layout. Learn more.

Left ArrowRight Arrow

34.02893, -84.19858

Hourly Observations for July 7, 2022

Temp ( °F °C ) Dew Point ( °F °C ) Humidity (%) Winds ( mph kmh ) Pressure ( in mb ) Visibility ( mi km ) Precip ( " mm )
12:53 am 00:53 Cloudy with Nearby Thunderstorms 77 25 72 22.2 85 85 SE 7 11 29.97 1015 10 16 0.00 0.00
1:07 am 01:07 Cloudy with Light Rain 76 24.4 73 22.8 91 91 Calm 30.00 1016 10 16 0.01 0.25
1:31 am 01:31 Cloudy with Nearby Thunderstorms 75 23.9 73 22.8 94 94 S 9 15 30.00 1016 10 16 0.01 0.25
1:46 am 01:46 Mostly Cloudy 75 23.9 73 22.8 94 94 SSE 6 9 29.99 1016 10 16 0.01 0.25
1:53 am 01:53 Partly Cloudy 75 23.9 73 22.8 94 94 VRB 3 6 29.96 1015 10 16 0.01 0.25
2:53 am 02:53 Mostly Cloudy 75 23.9 74 23.3 96 96 S 6 9 29.96 1015 10 16 0.00 0.00
3:53 am 03:53 Partly Cloudy 74 23.3 73 22.8 97 97 S 3 6 29.95 1014 10 16 0.00 0.00
4:53 am 04:53 Mostly Cloudy 75 23.9 72 22.2 90 90 NE 3 6 29.96 1015 10 16 0.00 0.00
5:53 am 05:53 Clear 75 23.9 73 22.8 94 94 Calm 29.94 1014 10 16 0.00 0.00
6:53 am 06:53 Sunny 74 23.3 73 22.8 97 97 Calm 29.95 1014 10 16 0.00 0.00
7:53 am 07:53 Sunny 78 25.6 73 22.8 85 85 WSW 5 7 29.97 1015 10 16 0.00 0.00
8:53 am 08:53 Sunny 80 26.7 74 23.3 82 82 WSW 6 9 29.98 1015 10 16 0.00 0.00
9:53 am 09:53 Sunny 85 29.4 75 23.9 72 72 W 7 11 30.00 1016 10 16 0.00 0.00
10:53 am 10:53 Partly Cloudy 86 30 73 22.8 65 65 W 10 17 30.00 1016 10 16 0.00 0.00
11:53 am 11:53 Mostly Sunny 90 32.2 74 23.3 59 59 W 10 17 29.99 1016 10 16 0.00 0.00
12:53 pm 12:53 Partly Cloudy 89 31.7 73 22.8 59 59 W 7 11 29.99 1016 10 16 0.00 0.00
1:53 pm 13:53 Partly Cloudy with Nearby Thunderstorms 93 33.9 73 22.8 52 52 W 9 15 29.96 1015 10 16 0.00 0.00
2:27 pm 14:27 Mostly Cloudy 91 32.8 74 23.3 57 57 SW 6 9 29.95 1014 10 16 0.00 0.00
2:38 pm 14:38 Partly Cloudy with Nearby Thunderstorms 92 33.3 77 25 62 62 S 8 13 29.94 1014 10 16 0.00 0.00
2:53 pm 14:53 Partly Cloudy 89 31.7 76 24.4 65 65 SSE 9 15 29.95 1014 10 16 0.00 0.00
3:09 pm 15:09 Partly Cloudy with Nearby Thunderstorms 88 31.1 72 22.2 59 59 WSW 12 19 29.94 1014 10 16 0.00 0.00
3:26 pm 15:26 Mostly Cloudy with Thunderstorms 88 31.1 75 23.9 66 66 SW 7 11 29.94 1014 10 16 0.00 0.00
3:53 pm 15:53 Mostly Sunny 88 31.1 75 23.9 66 66 undefined N/A 29.92 1013 10 16 0.00 0.00
4:53 pm 16:53 Sunny 93 33.9 73 22.8 52 52 undefined N/A 29.91 1013 10 16 0.00 0.00
5:39 pm 17:39 Partly Cloudy with Nearby Thunderstorms 88 31.1 73 22.8 61 61 NNW 15 24 29.94 1014 5 8 0.00 0.00
5:44 pm 17:44 Mostly Cloudy with Strong Thunderstorms 82 27.8 75 23.9 79 79 NNW 8 13 29.95 1014 2 3 0.08 2.03
5:53 pm 17:53 Mostly Cloudy with Thunderstorms 83 28.3 75 23.9 77 77 NNW 9 15 29.95 1014 5 8 0.08 2.03
6:22 pm 18:22 Sunny 80 26.7 73 22.8 79 79 VRB 6 9 29.96 1015 10 16 0.00 0.00
6:53 pm 18:53 Sunny 79 26.1 72 22.2 79 79 N 3 6 29.96 1015 10 16 0.00 0.00
7:53 pm 19:53 Sunny 79 26.1 73 22.8 82 82 Calm 29.97 1015 10 16 0.00 0.00
8:53 pm 20:53 Clear 77 25 74 23.3 90 90 Calm 29.96 1015 10 16 0.00 0.00
9:53 pm 21:53 Clear 78 25.6 74 23.3 87 87 Calm 29.97 1015 10 16 0.00 0.00
10:53 pm 22:53 Clear 78 25.6 74 23.3 87 87 Calm 30.01 1016 10 16 0.00 0.00
11:53 pm 23:53 Clear 76 24.4 74 23.3 94 94 Calm 29.99 1016 10 16 0.00 0.00

Powered by AerisWeather